Weather in Beregovoe

Russia / Republic of Crimea     44°54′05″N   33°37′17″E
temp.,
°C
wind,
m/s
gust,
m/s
humid.,
%
clouds,
%
prec.,
mm/h
press.,
hPa
HPBL,
m
7 march, sun
sun700:00+2nne885816 0.0 1028898
03:00+1nne55588 0.0 1029579
06:000nne44540 0.0 1029498
09:000ene11490 0.0 1028424
12:00+1sw33480 0.0 1028580
15:00+3w56450 0.0 10251469
18:00+4w56500 0.0 10241429
21:00+4wsw665227 0.0 10231279
8 march, mon
mon800:00+4sw785626 0.0 10221109
03:00+5sw785833 0.0 10211105
06:00+5sw786246 0.0 10191223
09:00+5sw886362 0.0 10181388
12:00+6sw9106598 0.1 10181257
15:00+6sw9116999 0.2 10161216
18:00+6sw91075100 0.3 10151075
21:00+7w676899 0.9 10161118
9 march, tue
tue900:00+6wnw566751 0.2 1017821
03:00+5n336626 0.2 1017360
06:00+3ne227316 0.0 1017228
09:00+3nne337324 0.0 1019306
12:00+4n346395 0.0 1020679
15:00+5nw446567 0.0 1020594
18:00+5nw44520 0.0 1020744
21:00+4n445132 0.0 1022496
10 march, wed
wed1000:00+3nne445864 0.0 1022434
03:00+2ne456482 0.0 1022347
06:00+2ne6768100 0.0 1021338
09:00+2ne6867100 0.0 1021479
12:00+4ne6654100 0.0 1021863
15:00+5ne6757100 0.0 1020990
18:00+4ne9966100 0.0 1019801
21:00+3ene91175100 0.0 1021606
11 march, thu
thu1100:00+2ne8973100 0.0 1021644
03:00+1ne8106065 0.0 1023740
06:00+1ne89620 0.0 1024774
09:00+2ne78590 0.0 1026993
12:00+3ne56460 0.0 10271458
15:00+4nne34391 0.0 10271699
18:00+4n334344 0.0 10271423
21:00+2ese555451 0.0 1028453